SCP
1 1 1 1 0 0 0 0 0 0 0 0 0 0 0 0 0 0 0 0 0 0 0 0 0 0 0 0 0 0 0 0 0 0 0 0 0 0 0 0 0 0 0
1 1 1 1 1 1 0 0 0 0 0 0 0 0 0 0 0 0 0 0 0 0 0 0 0 0 0 0 0 0 0 0 0 0 0 0 0 0 0 0 0 0 0
1 1 1 1 1 1 1 0 0 0 0 0 0 0 0 0 0 0 0 0 0 0 0 0 0 0 0 0 0 0 0 0 0 0 0 0 0 0 0 0 0 0 0
1 1 1 1 1 1 1 1 1 1 1 1 0 0 0 0 0 0 0 0 0 0 0 0 0 0 0 0 0 0 0 0 0 0 0 0 0 0 0 0 0 0 0
1 1 1 1 1 1 1 1 1 1 1 1 0 0 0 0 0 0 0 0 0 0 0 0 0 0 0 0 0 0 0 0 0 0 0 0 0 0 0 0 0 0 0
1 1 1 1 1 1 1 1 1 1 1 1 1 0 0 0 0 0 0 0 0 0 0 0 0 0 0 0 0 0 0 0 0 0 0 0 0 0 0 0 0 0 0
1 1 1 1 1 1 1 1 1 1 1 1 1 1 0 0 0 0 0 0 0 0 0 0 0 0 0 0 0 0 0 0 0 0 0 0 0 0 0 0 0 0 0
0 1 1 1 1 1 1 1 1 1 1 1 1 1 1 1 0 0 0 0 0 0 0 0 0 0 0 0 0 0 0 0 0 0 0 0 0 0 0 0 0 0 0
1 1 1 1 1 1 1 1 1 1 1 1 1 1 1 1 1 1 1 1 1 0 0 0 0 0 0 0 0 0 0 0 0 0 0 0 0 0 0 0 0 0 0
1 1 1 1 1 1 1 1 1 1 1 1 1 1 1 1 1 1 1 1 1 1 1 0 0 0 0 0 0 0 0 0 0 0 0 0 0 0 0 0 0 0 0
1 1 1 1 1 1 1 1 1 1 1 1 1 1 1 1 1 1 1 1 1 1 1 1 0 0 0 0 0 0 0 0 0 0 0 0 0 0 0 0 0 0 0
1 1 1 1 1 1 1 1 1 1 1 1 1 1 1 1 1 1 1 1 1 1 1 1 0 0 0 0 0 0 0 0 0 0 0 0 0 0 0 0 0 0 0
1 1 1 1 1 1 1 1 1 1 1 1 1 1 1 1 1 1 1 1 1 1 1 1 0 0 0 0 0 0 0 0 0 0 0 0 0 0 0 0 0 0 0
1 1 1 1 1 1 1 1 1 1 1 1 1 1 1 1 1 1 1 1 1 1 1 1 1 0 0 0 0 0 0 0 0 0 0 0 0 0 0 0 0 0 0
1 1 1 1 1 1 1 1 1 1 1 1 1 1 1 1 1 1 1 1 1 1 1 1 1 0 0 0 0 0 0 0 0 0 0 0 0 0 0 0 0 0 0
1 1 1 1 1 1 1 1 1 1 1 1 1 1 1 1 1 1 1 1 1 1 1 1 1 0 0 0 0 0 0 0 0 0 0 0 0 0 0 0 0 0 0
0 1 1 1 1 1 1 1 1 1 1 1 1 1 1 1 1 1 1 1 1 1 1 1 0 0 0 0 0 0 0 0 0 0 0 0 0 0 0 0 0 0 0
0 0 1 1 1 1 1 1 1 1 1 1 1 1 1 1 1 1 1 1 1 1 1 1 0 0 0 0 0 0 0 0 0 0 0 0 0 0 0 0 0 0 0
0 0 0 1 1 1 1 1 1 1 1 1 1 1 1 1 1 1 1 1 1 1 1 1 0 0 0 0 0 0 0 0 0 0 0 0 0 0 0 0 0 0 0
0 0 1 1 1 1 1 1 1 0 1 1 1 1 1 1 1 1 1 1 1 1 1 1 0 0 0 0 0 0 0 0 0 0 0 0 0 0 0 0 0 0 0
1 1 1 1 1 1 1 1 0 0 0 0 1 1 1 1 1 1 1 1 1 1 1 1 0 0 0 0 0 0 0 0 0 0 0 0 0 0 0 0 0 0 0
1 1 1 1 1 1 1 0 0 0 0 0 1 1 1 1 1 1 1 1 1 1 1 1 1 0 0 0 0 0 0 0 0 0 0 0 0 0 0 0 0 0 0
1 1 1 1 1 1 0 0 0 0 0 1 1 1 1 1 1 1 1 1 1 1 1 1 1 1 0 0 0 0 0 0 0 0 0 0 0 0 0 0 0 0 0
1 1 1 1 1 1 1 0 0 1 1 1 1 1 1 1 1 1 1 1 1 0 0 0 1 1 0 0 0 0 0 0 0 0 0 0 0 0 0 0 0 0 0
1 1 1 1 1 1 1 1 1 1 1 1 1 1 1 1 1 1 1 0 0 0 0 0 0 0 0 0 0 0 0 0 0 0 0 0 0 0 0 0 0 0 0
1 1 1 1 1 1 1 1 1 1 1 1 1 1 1 1 0 0 0 0 0 0 0 0 0 0 0 0 0 0 0 0 0 0 0 0 0 0 0 0 0 0 0
Wind_Speed
17 17 16 16 15 15 15 15 14 13 10 8 8 7 7 6 6 6 7 7 7 7 6 5 5 5 4 4 5 3 4 3 2 2 3 3 3 2 2 2 2 3 3
17 18 17 17 17 17 16 15 14 14 13 9 7 6 6 6 6 5 6 7 7 7 7 5 5 5 3 4 4 4 3 3 3 2 2 3 3 3 2 2 3 3 3
19 19 19 18 18 17 17 14 15 14 14 12 8 7 6 5 6 7 6 7 7 7 5 6 5 5 5 5 5 5 5 3 3 2 2 2 1 2 3 3 2 2 2
18 18 19 19 18 17 16 15 15 14 14 13 11 11 9 8 8 7 6 7 7 7 6 6 6 5 5 4 6 6 4 4 3 3 2 2 2 2 2 3 3 4 4
18 19 19 19 18 18 16 15 16 15 14 14 13 12 10 8 7 7 8 7 7 7 7 7 6 6 5 5 5 4 5 4 4 3 3 3 3 4 3 1 2 3 3
17 18 18 17 17 17 16 15 16 15 15 15 14 13 12 10 9 10 9 8 7 7 9 8 7 7 5 5 5 5 6 4 3 3 3 3 3 3 3 2 3 2 2
16 17 18 18 18 18 17 16 17 16 16 16 15 14 13 12 11 11 10 9 7 7 9 8 7 6 6 5 5 5 5 5 5 5 4 4 3 3 3 3 2 2 2
15 16 18 18 18 18 18 17 17 16 16 16 15 13 13 10 9 11 9 9 7 7 8 8 8 8 7 7 6 5 6 5 5 5 4 4 4 3 3 3 3 3 3
14 15 16 17 17 18 18 17 17 16 16 16 15 14 14 12 10 10 10 8 7 7 9 9 9 8 8 7 7 5 6 5 6 6 6 5 3 4 3 3 3 4 3
12 13 14 15 16 16 16 16 16 16 16 15 14 12 13 12 11 11 11 9 9 8 9 9 9 9 8 8 7 7 6 6 5 4 4 4 4 3 3 3 3 4 4
10 11 12 13 14 14 15 15 16 15 15 15 14 13 13 13 12 11 11 10 10 10 10 10 9 9 9 8 8 7 7 8 6 6 6 6 4 4 4 3 3 3 3
9 10 11 12 12 13 13 14 14 14 14 14 13 14 13 12 12 12 12 11 11 11 10 10 10 10 10 9 9 9 8 8 7 7 6 6 5 5 4 3 4 3 2
8 9 9 10 11 12 12 13 13 13 13 13 14 13 13 13 13 12 12 12 12 11 11 10 10 10 10 10 9 8 8 8 7 7 7 7 6 6 5 4 4 4 4
7 8 8 9 9 10 11 11 12 12 12 13 14 14 14 14 13 12 12 12 12 12 11 11 11 10 10 10 10 9 8 8 7 7 7 7 7 7 6 5 5 4 4
6 7 8 8 9 9 10 10 10 11 11 12 13 13 13 13 13 12 12 12 12 12 11 11 11 10 9 9 10 9 9 8 8 8 7 7 5 3 4 4 5 5 6
5 6 6 7 8 9 9 9 10 10 10 11 12 12 12 12 12 13 12 12 12 12 11 12 11 11 10 9 9 8 9 9 9 8 7 7 7 7 6 4 4 4 6
3 5 6 6 6 7 8 9 9 8 10 10 10 10 11 11 12 13 12 12 12 11 12 12 12 12 10 12 12 10 8 9 8 8 8 8 7 9 8 8 8 7 6
3 4 4 5 5 5 7 7 7 8 9 10 10 10 10 11 11 12 12 12 11 11 11 11 11 10 11 14 13 12 10 9 9 9 9 8 7 8 7 8 8 8 7
3 3 4 5 5 5 6 7 7 7 8 9 9 9 10 11 11 11 12 11 11 11 11 11 11 10 10 14 14 13 10 9 10 9 9 9 9 6 6 8 7 7 6
2 3 4 5 5 5 5 6 6 6 6 6 7 8 8 9 10 10 10 10 10 10 10 10 11 11 11 13 15 15 10 9 9 8 8 8 8 8 9 9 8 8 7
3 4 4 4 5 5 5 5 5 5 5 5 5 7 8 8 8 8 8 9 9 9 9 10 9 10 10 13 15 15 10 9 9 8 8 7 11 9 10 9 8 6 5
4 4 4 4 4 4 5 5 4 4 4 4 5 7 7 8 7 8 8 8 9 10 10 9 9 8 9 10 13 15 13 9 8 7 6 5 12 11 10 9 6 5 6
3 3 3 4 3 3 3 4 3 4 4 5 6 6 7 7 7 8 8 8 8 8 8 9 9 8 8 8 11 14 13 11 8 5 2 4 10 10 9 9 8 7 7
3 3 3 3 2 2 2 2 3 3 4 4 4 5 6 6 6 5 6 7 7 8 8 8 8 8 7 7 8 9 9 9 8 7 5 7 7 7 5 7 8 7 6
2 3 3 3 2 1 1 1 2 3 3 4 4 5 5 5 5 4 4 5 5 5 6 6 7 7 7 6 7 7 7 8 8 8 6 6 7 7 7 6 6 6 7
3 2 3 2 2 1 1 1 0 1 2 3 4 4 4 4 5 5 4 2 2 3 2 1 2 3 3 6 7 6 5 6 7 6 6 5 5 6 5 6 6 6 6
Wind_Direction
184 180 181 182 181 182 183 185 185 179 181 182 184 183 186 190 192 193 188 192 194 186 201 196 172 200 183 179 178 177 168 180 168 184 176 173 181 167 174 199 187 175 177
183 181 182 184 185 185 186 186 188 183 187 188 189 187 185 190 192 195 187 196 196 194 194 199 193 192 180 183 185 191 200 183 188 229 220 194 170 187 183 182 195 192 185
187 184 186 188 188 188 189 189 189 186 191 186 185 180 179 192 188 195 190 196 197 199 207 194 205 196 205 189 198 200 206 206 195 222 252 254 193 164 159 195 191 191 196
191 188 189 190 190 189 188 189 188 189 190 188 194 191 194 197 197 194 186 188 196 197 198 202 203 206 211 191 208 199 212 216 214 195 239 293 337 275 180 183 171 184 197
193 191 191 191 191 188 186 187 187 190 190 194 195 198 204 204 194 191 184 192 192 199 200 202 204 204 215 209 221 193 221 220 229 215 211 215 218 250 259 206 188 189 187
196 193 191 189 190 189 187 186 187 191 191 195 197 201 205 204 199 193 187 194 193 197 199 203 204 208 209 202 209 208 208 224 230 240 231 232 237 239 245 239 217 198 183
197 192 189 189 189 189 188 187 188 192 193 195 199 201 205 203 205 202 196 200 197 196 194 202 204 208 205 205 205 204 218 210 210 224 233 244 254 268 264 261 252 228 191
195 191 189 188 189 189 189 190 191 193 194 196 199 201 203 204 207 206 203 201 205 201 188 198 204 207 203 201 199 209 207 207 213 222 229 240 240 244 248 254 253 246 223
190 189 187 187 188 189 190 192 192 193 194 196 196 198 202 206 207 200 205 204 202 199 192 199 204 205 202 201 199 209 209 206 214 214 207 227 220 228 239 247 254 263 259
184 184 183 185 187 189 189 191 193 194 195 196 197 197 200 203 205 205 203 204 201 200 194 199 202 201 199 197 200 202 201 206 209 222 223 229 224 218 225 235 242 253 271
175 176 178 180 182 184 185 189 191 193 195 198 199 198 198 200 202 204 204 201 200 197 199 198 198 198 197 195 199 207 196 206 205 207 204 211 231 227 223 222 233 242 258
169 171 174 175 179 182 184 187 189 191 193 196 199 199 198 198 200 203 203 199 198 199 199 196 195 197 196 193 198 203 199 203 205 205 204 208 203 208 241 237 241 246 263
163 165 168 175 180 183 186 187 188 191 192 193 197 197 197 197 200 202 201 199 197 197 197 197 197 197 194 192 196 201 203 205 205 202 204 207 205 209 213 228 235 233 229
160 165 167 172 177 179 184 188 189 188 190 192 196 196 197 198 199 200 200 199 198 197 196 198 198 196 194 194 194 197 202 205 204 205 209 211 210 210 211 216 226 238 243
158 167 172 172 175 177 183 188 187 187 189 194 199 198 196 196 198 197 199 198 198 197 195 194 194 194 195 197 194 196 198 201 204 204 209 213 210 214 230 243 222 222 237
160 163 166 172 178 181 185 186 188 187 191 197 200 199 196 196 196 196 195 195 195 195 193 194 193 195 200 177 184 205 202 202 206 205 209 206 200 199 212 255 284 283 254
155 158 161 171 178 183 185 187 187 186 191 197 199 199 198 196 196 193 190 191 191 191 193 195 194 197 191 169 180 200 215 209 208 207 208 219 199 197 209 203 215 231 247
158 151 157 162 168 172 179 181 181 185 191 196 198 197 198 196 193 192 192 191 190 190 192 193 195 196 188 173 181 190 214 218 213 213 212 220 218 210 217 218 216 221 215
149 153 157 155 155 163 167 170 178 183 192 196 196 196 197 195 192 192 192 190 188 189 192 193 195 198 189 176 181 188 208 212 216 217 214 216 219 191 199 227 227 232 232
123 141 142 141 145 153 161 167 172 180 194 199 197 195 192 194 193 191 190 189 188 191 192 194 199 201 197 181 182 193 212 210 211 209 211 214 224 183 190 222 227 232 237
112 122 135 137 139 149 159 172 178 188 195 199 197 194 190 189 188 187 188 187 188 191 198 197 201 204 202 182 185 195 219 217 214 211 211 202 180 184 192 220 235 236 247
107 114 121 122 128 147 166 179 187 191 189 192 195 191 185 187 182 183 185 188 190 191 197 200 202 201 196 192 189 196 215 233 223 220 217 189 167 181 191 208 225 225 238
89 101 109 111 117 143 174 189 183 184 186 192 196 189 185 187 184 185 187 189 192 197 199 199 201 199 193 185 181 191 204 217 225 225 181 150 161 174 189 208 214 217 229
72 87 99 103 106 126 169 193 182 180 186 194 195 185 184 184 186 191 193 196 196 200 202 201 202 198 193 192 184 187 191 196 210 218 188 172 174 198 213 193 200 219 234
67 82 91 98 101 113 136 159 168 183 191 198 193 185 183 180 177 186 197 203 207 209 206 206 201 199 200 193 183 187 190 192 195 194 203 203 196 201 207 212 216 219 220
54 65 73 77 78 75 54 40 57 192 197 206 193 184 177 176 177 176 174 132 198 146 167 228 223 206 161 138 149 164 163 160 161 181 203 206 208 211 213 218 221 224 229